QPF
0.00 0.00 0.00 0.00 0.00 0.00 0.00 0.00 0.00 0.00 0.00 0.00 0.00 0.00 0.00 0.00 0.01 0.02 0.01 0.00 0.00 0.00 0.00 0.00 0.00 0.00 0.00 0.00 0.01 0.01 0.00 0.00 0.00 0.00 0.00 0.00 0.00 0.00 0.00 0.00 0.00 0.00 0.00 0.00 0.00 0.00 0.00 0.00 0.00
0.00 0.00 0.00 0.00 0.00 0.00 0.00 0.00 0.00 0.00 0.00 0.00 0.00 0.00 0.00 0.00 0.00 0.00 0.00 0.00 0.01 0.00 0.00 0.00 0.00 0.00 0.00 0.00 0.00 0.00 0.00 0.00 0.00 0.00 0.00 0.00 0.00 0.00 0.00 0.00 0.00 0.00 0.00 0.00 0.00 0.00 0.00 0.00 0.00
0.00 0.00 0.00 0.00 0.00 0.00 0.00 0.00 0.00 0.00 0.00 0.00 0.00 0.00 0.00 0.00 0.00 0.00 0.00 0.00 0.01 0.00 0.00 0.00 0.00 0.00 0.00 0.00 0.00 0.00 0.00 0.00 0.00 0.00 0.00 0.00 0.00 0.00 0.00 0.00 0.00 0.00 0.00 0.00 0.00 0.00 0.00 0.00 0.00
0.00 0.00 0.00 0.00 0.00 0.00 0.00 0.00 0.00 0.00 0.00 0.00 0.00 0.00 0.00 0.00 0.00 0.00 0.00 0.01 0.01 0.00 0.00 0.00 0.00 0.00 0.00 0.00 0.00 0.00 0.00 0.00 0.00 0.00 0.00 0.00 0.00 0.00 0.00 0.00 0.00 0.00 0.00 0.00 0.00 0.00 0.00 0.00 0.00
0.00 0.00 0.00 0.00 0.00 0.00 0.00 0.00 0.00 0.00 0.00 0.00 0.00 0.00 0.00 0.00 0.00 0.00 0.01 0.00 0.00 0.00 0.00 0.00 0.00 0.00 0.00 0.00 0.00 0.00 0.00 0.00 0.00 0.00 0.00 0.00 0.00 0.00 0.00 0.00 0.00 0.00 0.00 0.00 0.00 0.00 0.00 0.00 0.00
0.00 0.00 0.00 0.00 0.00 0.00 0.00 0.00 0.00 0.00 0.00 0.00 0.00 0.00 0.00 0.00 0.00 0.00 0.00 0.00 0.01 0.01 0.01 0.00 0.00 0.00 0.00 0.00 0.00 0.00 0.00 0.00 0.00 0.00 0.00 0.00 0.00 0.00 0.00 0.00 0.00 0.00 0.01 0.01 0.00 0.00 0.00 0.00 0.00
0.00 0.00 0.00 0.00 0.00 0.00 0.00 0.00 0.00 0.00 0.00 0.00 0.00 0.00 0.00 0.00 0.00 0.00 0.01 0.01 0.01 0.02 0.02 0.01 0.01 0.00 0.00 0.00 0.00 0.00 0.00 0.00 0.00 0.00 0.00 0.00 0.00 0.00 0.00 0.00 0.00 0.00 0.00 0.01 0.00 0.00 0.00 0.00 0.00
0.00 0.00 0.00 0.00 0.00 0.00 0.00 0.00 0.00 0.00 0.00 0.00 0.00 0.00 0.00 0.00 0.00 0.00 0.01 0.02 0.03 0.02 0.02 0.02 0.01 0.01 0.00 0.00 0.00 0.00 0.00 0.01 0.01 0.00 0.00 0.00 0.00 0.00 0.00 0.00 0.01 0.00 0.00 0.00 0.00 0.00 0.00 0.00 0.00
0.00 0.00 0.00 0.00 0.00 0.00 0.00 0.00 0.00 0.00 0.00 0.00 0.00 0.00 0.00 0.00 0.00 0.00 0.01 0.04 0.08 0.05 0.04 0.03 0.01 0.01 0.00 0.01 0.01 0.00 0.01 0.01 0.01 0.00 0.00 0.00 0.00 0.00 0.00 0.00 0.00 0.01 0.00 0.00 0.00 0.00 0.00 0.00 0.00
0.00 0.00 0.00 0.00 0.00 0.00 0.00 0.00 0.00 0.00 0.00 0.00 0.00 0.00 0.00 0.00 0.00 0.00 0.01 0.04 0.08 0.05 0.03 0.03 0.02 0.01 0.01 0.01 0.02 0.02 0.01 0.01 0.00 0.00 0.00 0.00 0.01 0.01 0.00 0.00 0.00 0.01 0.00 0.00 0.00 0.00 0.00 0.00 0.00
0.00 0.00 0.00 0.00 0.00 0.00 0.00 0.00 0.00 0.00 0.00 0.00 0.00 0.00 0.00 0.00 0.00 0.00 0.01 0.02 0.05 0.05 0.02 0.02 0.02 0.01 0.01 0.01 0.04 0.05 0.02 0.01 0.01 0.01 0.00 0.01 0.01 0.00 0.00 0.00 0.00 0.00 0.00 0.00 0.00 0.00 0.00 0.00 0.01
0.00 0.00 0.00 0.00 0.00 0.00 0.00 0.00 0.00 0.00 0.00 0.00 0.00 0.00 0.00 0.00 0.00 0.00 0.00 0.00 0.02 0.05 0.04 0.02 0.02 0.01 0.01 0.02 0.03 0.04 0.02 0.01 0.01 0.01 0.01 0.01 0.01 0.01 0.01 0.01 0.01 0.01 0.01 0.01 0.01 0.02 0.01 0.01 0.01
0.00 0.00 0.00 0.00 0.00 0.00 0.00 0.00 0.00 0.00 0.00 0.00 0.00 0.00 0.00 0.00 0.00 0.01 0.01 0.00 0.00 0.01 0.03 0.05 0.04 0.03 0.03 0.04 0.03 0.03 0.02 0.02 0.02 0.02 0.02 0.01 0.01 0.01 0.02 0.02 0.02 0.02 0.03 0.04 0.04 0.03 0.03 0.03 0.02
0.00 0.00 0.00 0.00 0.00 0.00 0.00 0.00 0.00 0.00 0.00 0.00 0.00 0.00 0.00 0.00 0.01 0.01 0.01 0.01 0.01 0.02 0.02 0.06 0.11 0.08 0.06 0.05 0.05 0.05 0.03 0.03 0.04 0.04 0.04 0.03 0.02 0.02 0.03 0.04 0.06 0.07 0.08 0.07 0.07 0.07 0.05 0.04 0.05
0.00 0.00 0.00 0.00 0.00 0.00 0.00 0.00 0.00 0.00 0.00 0.00 0.00 0.00 0.00 0.01 0.01 0.02 0.02 0.02 0.03 0.05 0.06 0.08 0.14 0.14 0.09 0.07 0.09 0.08 0.07 0.04 0.04 0.06 0.04 0.02 0.02 0.02 0.04 0.06 0.08 0.10 0.10 0.09 0.09 0.08 0.07 0.07 0.07
0.00 0.00 0.00 0.00 0.00 0.00 0.00 0.00 0.00 0.00 0.00 0.00 0.00 0.00 0.00 0.01 0.01 0.02 0.04 0.05 0.07 0.07 0.09 0.11 0.12 0.13 0.11 0.09 0.08 0.11 0.15 0.11 0.09 0.10 0.08 0.04 0.04 0.04 0.06 0.07 0.08 0.09 0.10 0.11 0.11 0.10 0.09 0.09 0.08
0.00 0.00 0.00 0.00 0.00 0.00 0.00 0.00 0.00 0.00 0.00 0.00 0.00 0.00 0.00 0.01 0.01 0.02 0.02 0.03 0.07 0.10 0.12 0.15 0.15 0.15 0.13 0.13 0.13 0.14 0.17 0.19 0.20 0.19 0.17 0.12 0.08 0.08 0.09 0.11 0.11 0.12 0.15 0.14 0.14 0.13 0.10 0.10 0.08
0.00 0.00 0.00 0.00 0.00 0.00 0.00 0.00 0.00 0.00 0.00 0.00 0.00 0.00 0.00 0.01 0.02 0.02 0.03 0.03 0.06 0.12 0.16 0.18 0.20 0.18 0.17 0.18 0.19 0.20 0.19 0.19 0.21 0.20 0.18 0.17 0.15 0.15 0.16 0.16 0.16 0.16 0.16 0.14 0.14 0.13 0.10 0.08 0.08
0.00 0.00 0.00 0.00 0.00 0.00 0.00 0.00 0.00 0.00 0.00 0.00 0.01 0.01 0.00 0.01 0.01 0.01 0.02 0.03 0.04 0.09 0.15 0.16 0.20 0.27 0.29 0.31 0.29 0.25 0.24 0.24 0.25 0.21 0.21 0.23 0.22 0.22 0.20 0.19 0.16 0.15 0.16 0.17 0.15 0.12 0.09 0.06 0.06
0.00 0.00 0.00 0.00 0.00 0.00 0.00 0.01 0.01 0.01 0.01 0.01 0.01 0.01 0.01 0.01 0.00 0.00 0.01 0.01 0.03 0.04 0.07 0.10 0.14 0.22 0.32 0.38 0.43 0.39 0.39 0.36 0.31 0.27 0.24 0.23 0.23 0.24 0.24 0.21 0.19 0.16 0.16 0.16 0.14 0.11 0.09 0.07 0.07
0.00 0.00 0.00 0.00 0.00 0.00 0.01 0.01 0.02 0.01 0.01 0.01 0.01 0.01 0.01 0.01 0.01 0.01 0.01 0.01 0.02 0.03 0.05 0.08 0.12 0.18 0.26 0.35 0.40 0.40 0.42 0.41 0.36 0.32 0.30 0.30 0.27 0.24 0.22 0.22 0.20 0.17 0.14 0.12 0.10 0.09 0.10 0.09 0.07
0.00 0.00 0.00 0.00 0.00 0.01 0.01 0.02 0.03 0.03 0.03 0.02 0.01 0.01 0.01 0.01 0.01 0.01 0.01 0.01 0.02 0.03 0.05 0.07 0.10 0.15 0.21 0.28 0.32 0.34 0.39 0.42 0.42 0.37 0.31 0.28 0.27 0.25 0.23 0.22 0.21 0.19 0.16 0.12 0.09 0.06 0.06 0.06 0.06
0.00 0.00 0.00 0.00 0.00 0.01 0.01 0.03 0.03 0.04 0.04 0.03 0.03 0.02 0.02 0.02 0.02 0.02 0.02 0.02 0.02 0.03 0.04 0.07 0.10 0.14 0.20 0.26 0.30 0.33 0.37 0.43 0.42 0.36 0.29 0.25 0.24 0.22 0.20 0.20 0.18 0.15 0.12 0.10 0.07 0.05 0.04 0.04 0.04
0.00 0.00 0.00 0.00 0.01 0.01 0.01 0.02 0.03 0.05 0.06 0.05 0.04 0.04 0.04 0.03 0.03 0.02 0.02 0.02 0.03 0.03 0.04 0.07 0.09 0.14 0.16 0.18 0.22 0.25 0.27 0.30 0.32 0.31 0.26 0.23 0.20 0.17 0.14 0.13 0.13 0.11 0.09 0.07 0.05 0.04 0.04 0.04 0.04
0.00 0.00 0.01 0.01 0.01 0.01 0.01 0.02 0.04 0.05 0.08 0.07 0.06 0.07 0.06 0.04 0.03 0.02 0.03 0.02 0.03 0.04 0.05 0.06 0.07 0.09 0.10 0.13 0.19 0.23 0.25 0.26 0.27 0.25 0.25 0.21 0.18 0.15 0.12 0.11 0.10 0.10 0.09 0.07 0.06 0.05 0.04 0.04 0.03
0.00 0.00 0.01 0.01 0.01 0.01 0.02 0.04 0.05 0.04 0.06 0.07 0.07 0.08 0.06 0.05 0.03 0.03 0.04 0.03 0.03 0.03 0.05 0.06 0.06 0.07 0.08 0.11 0.16 0.19 0.23 0.24 0.20 0.16 0.16 0.16 0.15 0.15 0.14 0.10 0.08 0.07 0.06 0.05 0.04 0.04 0.03 0.02 0.02
0.00 0.00 0.00 0.01 0.01 0.02 0.04 0.05 0.05 0.05 0.06 0.07 0.08 0.06 0.05 0.05 0.04 0.05 0.05 0.04 0.04 0.04 0.05 0.06 0.08 0.08 0.07 0.08 0.10 0.10 0.12 0.13 0.12 0.11 0.10 0.11 0.11 0.12 0.11 0.09 0.07 0.05 0.04 0.04 0.03 0.03 0.02 0.02 0.01
0.00 0.00 0.01 0.01 0.01 0.02 0.05 0.07 0.06 0.06 0.08 0.11 0.10 0.08 0.05 0.04 0.04 0.03 0.04 0.03 0.04 0.04 0.05 0.05 0.08 0.10 0.11 0.09 0.11 0.12 0.11 0.11 0.11 0.10 0.09 0.09 0.09 0.07 0.06 0.05 0.04 0.03 0.03 0.03 0.02 0.02 0.02 0.01 0.01
0.00 0.01 0.01 0.01 0.01 0.01 0.03 0.05 0.04 0.05 0.09 0.14 0.13 0.11 0.10 0.07 0.06 0.04 0.03 0.03 0.04 0.05 0.05 0.05 0.06 0.08 0.13 0.17 0.17 0.18 0.21 0.22 0.16 0.11 0.11 0.10 0.08 0.07 0.06 0.05 0.04 0.03 0.02 0.02 0.02 0.02 0.01 0.01 0.01
0.00 0.01 0.01 0.02 0.02 0.02 0.03 0.03 0.02 0.03 0.07 0.12 0.16 0.16 0.15 0.13 0.10 0.08 0.07 0.06 0.06 0.07 0.07 0.06 0.06 0.08 0.11 0.16 0.17 0.17 0.18 0.24 0.27 0.22 0.17 0.11 0.07 0.05 0.04 0.03 0.02 0.01 0.01 0.01 0.01 0.01 0.00 0.00 0.00
MSLP
1012.20 1012.55 1012.93 1013.20 1013.31 1013.22 1012.94 1012.54 1012.12 1011.77 1011.58 1011.55 1011.65 1011.83 1011.99 1012.05 1011.97 1011.75 1011.46 1011.17 1011.00 1011.02 1011.26 1011.72 1012.32 1012.98 1013.59 1014.09 1014.44 1014.66 1014.80 1014.93 1015.12 1015.41 1015.80 1016.27 1016.73 1017.15 1017.44 1017.60 1017.64 1017.59 1017.51 1017.47 1017.50 1017.62 1017.80 1018.00 1018.18
1012.17 1012.55 1012.91 1013.16 1013.22 1013.06 1012.71 1012.24 1011.76 1011.36 1011.11 1011.05 1011.14 1011.31 1011.47 1011.55 1011.50 1011.32 1011.07 1010.82 1010.69 1010.74 1011.02 1011.52 1012.17 1012.87 1013.54 1014.10 1014.51 1014.79 1014.98 1015.14 1015.34 1015.63 1016.00 1016.43 1016.85 1017.22 1017.48 1017.61 1017.64 1017.62 1017.59 1017.61 1017.71 1017.89 1018.12 1018.35 1018.54
1012.19 1012.57 1012.90 1013.09 1013.09 1012.86 1012.45 1011.92 1011.39 1010.94 1010.66 1010.56 1010.62 1010.77 1010.93 1011.02 1010.99 1010.85 1010.64 1010.45 1010.36 1010.46 1010.78 1011.31 1011.99 1012.75 1013.47 1014.09 1014.58 1014.92 1015.17 1015.37 1015.60 1015.88 1016.22 1016.59 1016.96 1017.28 1017.50 1017.62 1017.67 1017.68 1017.72 1017.81 1017.98 1018.23 1018.50 1018.76 1018.93
1012.26 1012.60 1012.88 1013.01 1012.94 1012.66 1012.20 1011.64 1011.07 1010.59 1010.27 1010.13 1010.16 1010.28 1010.43 1010.53 1010.53 1010.43 1010.28 1010.14 1010.11 1010.25 1010.60 1011.16 1011.88 1012.66 1013.43 1014.10 1014.65 1015.06 1015.37 1015.62 1015.87 1016.14 1016.45 1016.78 1017.10 1017.37 1017.57 1017.69 1017.76 1017.83 1017.93 1018.10 1018.34 1018.63 1018.93 1019.17 1019.32
1012.32 1012.62 1012.84 1012.91 1012.79 1012.47 1011.99 1011.41 1010.82 1010.32 1009.97 1009.80 1009.80 1009.90 1010.03 1010.15 1010.18 1010.13 1010.04 1009.97 1009.99 1010.18 1010.55 1011.12 1011.84 1012.63 1013.41 1014.12 1014.72 1015.19 1015.55 1015.85 1016.12 1016.40 1016.69 1016.99 1017.27 1017.51 1017.70 1017.83 1017.94 1018.06 1018.22 1018.45 1018.73 1019.04 1019.33 1019.55 1019.64
1012.37 1012.61 1012.77 1012.79 1012.64 1012.30 1011.81 1011.24 1010.66 1010.15 1009.79 1009.59 1009.55 1009.63 1009.76 1009.88 1009.96 1009.97 1009.95 1009.94 1010.02 1010.23 1010.62 1011.17 1011.86 1012.63 1013.40 1014.12 1014.74 1015.25 1015.66 1016.00 1016.31 1016.60 1016.89 1017.18 1017.44 1017.67 1017.86 1018.01 1018.16 1018.32 1018.53 1018.78 1019.08 1019.37 1019.63 1019.79 1019.83
1012.37 1012.55 1012.67 1012.65 1012.48 1012.15 1011.68 1011.13 1010.56 1010.07 1009.69 1009.47 1009.40 1009.45 1009.57 1009.71 1009.83 1009.91 1009.96 1010.02 1010.14 1010.38 1010.75 1011.26 1011.90 1012.61 1013.34 1014.03 1014.65 1015.19 1015.64 1016.02 1016.37 1016.69 1017.00 1017.29 1017.55 1017.79 1017.99 1018.16 1018.34 1018.53 1018.76 1019.02 1019.29 1019.55 1019.75 1019.85 1019.82
1012.32 1012.46 1012.52 1012.48 1012.31 1012.00 1011.56 1011.05 1010.51 1010.02 1009.63 1009.38 1009.28 1009.31 1009.42 1009.58 1009.74 1009.88 1010.00 1010.12 1010.28 1010.52 1010.86 1011.32 1011.88 1012.52 1013.17 1013.82 1014.42 1014.96 1015.44 1015.87 1016.25 1016.61 1016.95 1017.26 1017.54 1017.79 1018.01 1018.21 1018.41 1018.62 1018.84 1019.09 1019.33 1019.53 1019.67 1019.69 1019.61
1012.25 1012.33 1012.36 1012.30 1012.14 1011.85 1011.45 1010.97 1010.46 1009.97 1009.57 1009.29 1009.15 1009.15 1009.25 1009.42 1009.61 1009.80 1009.98 1010.15 1010.34 1010.58 1010.88 1011.28 1011.76 1012.30 1012.88 1013.47 1014.04 1014.57 1015.07 1015.52 1015.95 1016.34 1016.71 1017.06 1017.36 1017.64 1017.88 1018.11 1018.32 1018.53 1018.75 1018.97 1019.17 1019.32 1019.40 1019.37 1019.25
1012.16 1012.20 1012.19 1012.12 1011.96 1011.70 1011.33 1010.87 1010.37 1009.88 1009.45 1009.14 1008.96 1008.92 1009.00 1009.17 1009.39 1009.62 1009.84 1010.05 1010.27 1010.50 1010.77 1011.11 1011.51 1011.97 1012.48 1013.00 1013.54 1014.06 1014.56 1015.03 1015.49 1015.91 1016.32 1016.69 1017.03 1017.33 1017.60 1017.84 1018.07 1018.29 1018.50 1018.70 1018.87 1018.98 1019.02 1018.97 1018.84
1012.09 1012.08 1012.03 1011.95 1011.78 1011.53 1011.18 1010.73 1010.24 1009.73 1009.27 1008.91 1008.68 1008.59 1008.64 1008.80 1009.03 1009.28 1009.54 1009.79 1010.03 1010.27 1010.52 1010.83 1011.18 1011.58 1012.03 1012.51 1013.00 1013.50 1014.00 1014.48 1014.94 1015.39 1015.81 1016.20 1016.57 1016.90 1017.20 1017.46 1017.71 1017.94 1018.16 1018.35 1018.51 1018.61 1018.65 1018.61 1018.50
1012.04 1011.98 1011.90 1011.78 1011.61 1011.35 1010.99 1010.55 1010.03 1009.50 1009.00 1008.59 1008.31 1008.17 1008.18 1008.32 1008.54 1008.80 1009.09 1009.37 1009.64 1009.91 1010.18 1010.48 1010.82 1011.21 1011.63 1012.08 1012.55 1013.02 1013.49 1013.96 1014.41 1014.86 1015.28 1015.69 1016.07 1016.42 1016.75 1017.05 1017.32 1017.58 1017.81 1018.02 1018.19 1018.31 1018.38 1018.38 1018.32
1012.02 1011.91 1011.78 1011.63 1011.42 1011.14 1010.77 1010.30 1009.77 1009.20 1008.67 1008.21 1007.87 1007.68 1007.64 1007.74 1007.94 1008.21 1008.52 1008.84 1009.15 1009.47 1009.79 1010.14 1010.52 1010.93 1011.36 1011.80 1012.26 1012.71 1013.15 1013.58 1014.00 1014.42 1014.83 1015.23 1015.62 1016.00 1016.35 1016.69 1017.00 1017.28 1017.55 1017.79 1017.99 1018.15 1018.27 1018.33 1018.35
1012.01 1011.85 1011.67 1011.47 1011.23 1010.91 1010.51 1010.01 1009.45 1008.86 1008.28 1007.78 1007.40 1007.16 1007.08 1007.14 1007.31 1007.58 1007.90 1008.25 1008.63 1009.02 1009.43 1009.87 1010.33 1010.80 1011.28 1011.75 1012.20 1012.63 1013.03 1013.41 1013.78 1014.16 1014.53 1014.92 1015.32 1015.71 1016.09 1016.45 1016.80 1017.12 1017.43 1017.70 1017.95 1018.16 1018.34 1018.48 1018.58
1011.99 1011.79 1011.56 1011.31 1011.02 1010.66 1010.22 1009.70 1009.11 1008.50 1007.91 1007.38 1006.97 1006.69 1006.56 1006.58 1006.73 1006.98 1007.31 1007.69 1008.13 1008.61 1009.13 1009.68 1010.26 1010.83 1011.38 1011.89 1012.36 1012.77 1013.13 1013.45 1013.77 1014.09 1014.43 1014.79 1015.18 1015.59 1016.00 1016.40 1016.78 1017.13 1017.46 1017.77 1018.05 1018.31 1018.54 1018.75 1018.92
1011.95 1011.70 1011.43 1011.14 1010.80 1010.40 1009.93 1009.39 1008.80 1008.19 1007.59 1007.06 1006.64 1006.34 1006.18 1006.16 1006.28 1006.50 1006.82 1007.23 1007.72 1008.29 1008.92 1009.59 1010.29 1010.97 1011.61 1012.19 1012.67 1013.07 1013.40 1013.67 1013.93 1014.20 1014.50 1014.85 1015.24 1015.66 1016.10 1016.52 1016.92 1017.30 1017.64 1017.95 1018.25 1018.53 1018.80 1019.06 1019.29
1011.86 1011.59 1011.29 1010.96 1010.59 1010.17 1009.68 1009.14 1008.55 1007.96 1007.40 1006.89 1006.48 1006.19 1006.01 1005.96 1006.03 1006.22 1006.52 1006.93 1007.45 1008.07 1008.78 1009.56 1010.37 1011.16 1011.89 1012.52 1013.04 1013.44 1013.75 1013.99 1014.21 1014.45 1014.73 1015.08 1015.48 1015.92 1016.37 1016.82 1017.23 1017.59 1017.92 1018.22 1018.50 1018.77 1019.04 1019.32 1019.60
1011.73 1011.45 1011.14 1010.79 1010.41 1009.98 1009.50 1008.97 1008.42 1007.88 1007.37 1006.92 1006.55 1006.28 1006.11 1006.04 1006.07 1006.20 1006.45 1006.83 1007.33 1007.97 1008.73 1009.57 1010.45 1011.32 1012.12 1012.81 1013.36 1013.78 1014.09 1014.32 1014.54 1014.77 1015.07 1015.43 1015.86 1016.33 1016.80 1017.26 1017.66 1018.01 1018.29 1018.54 1018.77 1019.00 1019.24 1019.51 1019.79
1011.56 1011.29 1010.99 1010.65 1010.28 1009.86 1009.40 1008.92 1008.44 1007.97 1007.55 1007.18 1006.89 1006.67 1006.52 1006.43 1006.42 1006.49 1006.67 1006.97 1007.42 1008.01 1008.74 1009.59 1010.49 1011.40 1012.24 1012.97 1013.56 1014.01 1014.35 1014.62 1014.86 1015.14 1015.47 1015.88 1016.36 1016.86 1017.36 1017.82 1018.21 1018.51 1018.74 1018.91 1019.06 1019.21 1019.40 1019.62 1019.89
1011.35 1011.11 1010.85 1010.54 1010.20 1009.82 1009.42 1009.00 1008.60 1008.23 1007.92 1007.67 1007.47 1007.33 1007.22 1007.14 1007.09 1007.10 1007.18 1007.37 1007.71 1008.20 1008.85 1009.63 1010.50 1011.39 1012.23 1012.99 1013.62 1014.12 1014.52 1014.85 1015.17 1015.52 1015.94 1016.42 1016.95 1017.51 1018.03 1018.49 1018.85 1019.09 1019.25 1019.33 1019.39 1019.45 1019.55 1019.72 1019.94
1011.11 1010.92 1010.71 1010.47 1010.18 1009.86 1009.52 1009.19 1008.89 1008.64 1008.46 1008.34 1008.26 1008.22 1008.17 1008.11 1008.05 1007.99 1007.96 1008.03 1008.21 1008.56 1009.07 1009.73 1010.50 1011.32 1012.14 1012.90 1013.57 1014.13 1014.61 1015.04 1015.47 1015.93 1016.45 1017.03 1017.64 1018.24 1018.79 1019.24 1019.56 1019.76 1019.83 1019.83 1019.79 1019.77 1019.79 1019.88 1020.05
1010.83 1010.72 1010.58 1010.40 1010.19 1009.94 1009.68 1009.45 1009.26 1009.13 1009.09 1009.11 1009.17 1009.24 1009.28 1009.27 1009.20 1009.08 1008.96 1008.89 1008.91 1009.08 1009.42 1009.92 1010.56 1011.29 1012.05 1012.80 1013.50 1014.13 1014.71 1015.26 1015.81 1016.40 1017.04 1017.71 1018.39 1019.03 1019.60 1020.04 1020.33 1020.47 1020.48 1020.41 1020.29 1020.19 1020.14 1020.17 1020.28
1010.54 1010.50 1010.43 1010.33 1010.19 1010.02 1009.84 1009.70 1009.62 1009.63 1009.72 1009.89 1010.10 1010.29 1010.43 1010.49 1010.44 1010.29 1010.10 1009.90 1009.78 1009.77 1009.92 1010.25 1010.74 1011.36 1012.05 1012.78 1013.51 1014.21 1014.89 1015.56 1016.24 1016.95 1017.69 1018.44 1019.18 1019.86 1020.42 1020.85 1021.10 1021.20 1021.16 1021.03 1020.87 1020.72 1020.62 1020.61 1020.67
1010.25 1010.27 1010.27 1010.23 1010.15 1010.05 1009.96 1009.91 1009.93 1010.06 1010.28 1010.59 1010.93 1011.26 1011.51 1011.65 1011.64 1011.51 1011.27 1010.99 1010.75 1010.60 1010.59 1010.76 1011.12 1011.62 1012.25 1012.95 1013.69 1014.45 1015.22 1016.00 1016.79 1017.59 1018.41 1019.22 1019.98 1020.66 1021.21 1021.61 1021.83 1021.89 1021.83 1021.67 1021.49 1021.32 1021.21 1021.18 1021.22
1009.96 1010.03 1010.07 1010.09 1010.07 1010.03 1010.00 1010.03 1010.14 1010.37 1010.71 1011.13 1011.60 1012.06 1012.43 1012.66 1012.73 1012.63 1012.40 1012.09 1011.77 1011.53 1011.41 1011.47 1011.71 1012.12 1012.69 1013.36 1014.12 1014.92 1015.75 1016.60 1017.46 1018.33 1019.18 1020.00 1020.76 1021.41 1021.92 1022.27 1022.46 1022.50 1022.42 1022.27 1022.10 1021.96 1021.86 1021.84 1021.88
1009.72 1009.80 1009.87 1009.91 1009.92 1009.93 1009.95 1010.04 1010.23 1010.54 1010.98 1011.51 1012.09 1012.65 1013.13 1013.47 1013.63 1013.60 1013.41 1013.13 1012.81 1012.53 1012.36 1012.35 1012.53 1012.88 1013.40 1014.06 1014.81 1015.62 1016.48 1017.36 1018.25 1019.12 1019.97 1020.76 1021.47 1022.06 1022.52 1022.82 1022.96 1022.99 1022.91 1022.79 1022.66 1022.55 1022.50 1022.51 1022.57
1009.54 1009.61 1009.67 1009.71 1009.74 1009.77 1009.84 1009.98 1010.23 1010.61 1011.12 1011.73 1012.40 1013.05 1013.63 1014.07 1014.33 1014.40 1014.30 1014.08 1013.82 1013.57 1013.42 1013.40 1013.55 1013.89 1014.38 1015.01 1015.74 1016.54 1017.39 1018.25 1019.11 1019.95 1020.74 1021.47 1022.10 1022.61 1022.99 1023.24 1023.35 1023.36 1023.30 1023.21 1023.13 1023.08 1023.09 1023.15 1023.24
1009.44 1009.47 1009.51 1009.53 1009.56 1009.60 1009.70 1009.88 1010.18 1010.62 1011.19 1011.86 1012.59 1013.32 1013.98 1014.51 1014.87 1015.04 1015.06 1014.95 1014.79 1014.63 1014.54 1014.56 1014.74 1015.08 1015.56 1016.16 1016.86 1017.63 1018.42 1019.23 1020.02 1020.78 1021.48 1022.11 1022.65 1023.08 1023.38 1023.57 1023.65 1023.65 1023.61 1023.56 1023.53 1023.55 1023.61 1023.72 1023.86
1009.43 1009.41 1009.40 1009.40 1009.41 1009.46 1009.58 1009.80 1010.14 1010.63 1011.25 1011.98 1012.76 1013.53 1014.25 1014.85 1015.30 1015.59 1015.72 1015.75 1015.71 1015.67 1015.69 1015.80 1016.03 1016.39 1016.87 1017.44 1018.10 1018.79 1019.51 1020.22 1020.91 1021.57 1022.17 1022.70 1023.14 1023.48 1023.72 1023.86 1023.93 1023.93 1023.91 1023.89 1023.90 1023.96 1024.07 1024.22 1024.39
1009.51 1009.43 1009.36 1009.32 1009.32 1009.37 1009.52 1009.78 1010.18 1010.71 1011.38 1012.14 1012.96 1013.77 1014.53 1015.19 1015.71 1016.09 1016.35 1016.50 1016.60 1016.70 1016.84 1017.04 1017.34 1017.73 1018.21 1018.75 1019.34 1019.95 1020.57 1021.18 1021.76 1022.30 1022.79 1023.23 1023.59 1023.87 1024.07 1024.18 1024.23 1024.24 1024.24 1024.24 1024.28 1024.37 1024.50 1024.67 1024.85
Thickness
5774 5780 5785 5782 5772 5767 5772 5785 5787 5787 5790 5798 5800 5797 5795 5793 5788 5782 5803 5813 5811 5807 5799 5789 5785 5782 5780 5778 5776 5774 5771 5770 5768 5765 5763 5762 5760 5758 5757 5755 5754 5753 5752 5752 5751 5750 5749 5748 5747
5777 5779 5777 5774 5761 5759 5773 5785 5782 5786 5792 5798 5798 5794 5792 5794 5799 5799 5803 5807 5806 5803 5795 5789 5782 5779 5777 5774 5772 5770 5768 5766 5764 5762 5760 5758 5756 5755 5754 5752 5751 5750 5749 5749 5748 5746 5746 5745 5744
5774 5775 5769 5765 5759 5763 5775 5781 5782 5788 5794 5792 5791 5794 5792 5792 5797 5799 5803 5804 5803 5799 5793 5786 5779 5776 5774 5771 5769 5767 5765 5762 5760 5758 5757 5755 5753 5752 5751 5750 5748 5747 5746 5745 5744 5743 5742 5741 5740
5770 5765 5763 5755 5757 5773 5779 5781 5782 5783 5787 5791 5789 5786 5794 5799 5799 5802 5802 5801 5799 5796 5791 5782 5776 5773 5770 5767 5765 5763 5761 5759 5757 5755 5754 5752 5750 5749 5748 5747 5745 5744 5743 5742 5741 5740 5739 5738 5737
5767 5759 5748 5747 5759 5775 5778 5779 5779 5777 5780 5784 5784 5782 5787 5797 5802 5802 5799 5798 5795 5793 5788 5779 5772 5769 5766 5764 5762 5759 5758 5755 5753 5752 5750 5749 5747 5746 5745 5744 5742 5741 5740 5739 5738 5736 5735 5735 5734
5754 5752 5741 5743 5758 5769 5773 5776 5775 5775 5780 5784 5782 5781 5787 5795 5794 5795 5797 5794 5793 5790 5785 5776 5768 5765 5762 5760 5758 5756 5754 5752 5750 5749 5747 5746 5744 5743 5742 5741 5739 5738 5737 5736 5735 5733 5733 5732 5732
5748 5744 5742 5749 5754 5759 5766 5774 5770 5771 5774 5781 5785 5777 5784 5788 5791 5791 5791 5790 5790 5787 5782 5774 5767 5762 5758 5756 5754 5752 5750 5749 5747 5746 5744 5742 5741 5740 5739 5738 5737 5736 5735 5733 5732 5731 5730 5730 5729
5752 5744 5740 5745 5744 5751 5765 5767 5769 5768 5771 5784 5784 5775 5778 5783 5787 5786 5785 5784 5783 5781 5778 5772 5768 5763 5758 5754 5750 5748 5746 5745 5743 5742 5741 5739 5738 5736 5735 5735 5734 5733 5732 5731 5730 5729 5728 5728 5728
5743 5732 5734 5741 5740 5748 5759 5756 5763 5770 5769 5774 5780 5782 5785 5785 5783 5778 5775 5774 5774 5774 5773 5770 5767 5763 5759 5755 5748 5745 5742 5740 5739 5738 5737 5736 5738 5737 5734 5735 5732 5731 5730 5729 5728 5727 5727 5727 5727
5734 5727 5736 5743 5744 5745 5750 5750 5754 5756 5758 5763 5771 5778 5782 5779 5776 5772 5770 5768 5768 5768 5769 5768 5765 5762 5759 5756 5748 5745 5742 5740 5739 5740 5737 5738 5740 5739 5738 5732 5729 5728 5728 5727 5727 5726 5726 5727 5731
5730 5728 5734 5735 5739 5740 5741 5744 5750 5745 5747 5758 5763 5769 5774 5774 5772 5772 5771 5769 5768 5767 5765 5765 5762 5761 5759 5755 5749 5747 5745 5741 5739 5740 5738 5738 5738 5736 5735 5732 5728 5728 5727 5729 5727 5727 5730 5732 5732
5723 5725 5727 5729 5734 5732 5733 5738 5740 5743 5748 5762 5767 5770 5770 5769 5772 5773 5772 5770 5768 5764 5762 5763 5759 5757 5755 5753 5749 5746 5745 5743 5742 5739 5737 5737 5736 5736 5736 5733 5733 5732 5731 5731 5731 5731 5731 5730 5729
5715 5719 5723 5726 5728 5729 5729 5730 5732 5739 5751 5758 5761 5764 5767 5769 5771 5773 5773 5771 5767 5762 5760 5760 5757 5754 5751 5748 5747 5745 5744 5742 5740 5738 5735 5735 5735 5734 5734 5732 5730 5731 5731 5729 5728 5729 5727 5727 5727
5716 5716 5717 5721 5723 5724 5720 5726 5728 5735 5745 5748 5752 5756 5762 5765 5767 5768 5766 5764 5763 5761 5759 5757 5754 5751 5747 5745 5744 5743 5742 5739 5738 5736 5734 5731 5732 5732 5730 5728 5726 5727 5727 5726 5725 5725 5723 5723 5724
5710 5705 5712 5718 5718 5720 5717 5713 5722 5732 5737 5739 5745 5749 5753 5757 5760 5760 5761 5760 5759 5757 5755 5753 5750 5748 5744 5743 5742 5741 5739 5736 5735 5733 5731 5729 5729 5728 5726 5727 5724 5724 5723 5722 5720 5720 5720 5720 5720
5704 5700 5701 5711 5711 5712 5704 5704 5720 5728 5729 5730 5735 5740 5742 5746 5751 5753 5754 5754 5755 5753 5750 5748 5747 5743 5741 5739 5738 5738 5735 5733 5730 5729 5727 5725 5725 5723 5722 5723 5722 5720 5719 5718 5717 5717 5716 5715 5715
5697 5693 5694 5700 5707 5705 5701 5701 5714 5720 5720 5721 5726 5731 5733 5736 5740 5743 5745 5747 5748 5747 5745 5742 5742 5739 5737 5735 5734 5732 5729 5727 5725 5722 5721 5720 5720 5718 5718 5718 5717 5716 5715 5714 5714 5713 5712 5709 5708
5685 5689 5688 5690 5699 5697 5695 5697 5705 5710 5712 5713 5717 5721 5723 5726 5729 5733 5736 5739 5740 5740 5738 5737 5735 5733 5731 5729 5726 5724 5722 5721 5719 5716 5715 5714 5713 5714 5714 5713 5711 5711 5711 5709 5708 5706 5705 5703 5702
5684 5681 5682 5689 5698 5691 5689 5691 5697 5701 5703 5705 5707 5711 5713 5716 5722 5726 5728 5731 5733 5732 5731 5731 5729 5727 5725 5723 5721 5718 5715 5714 5713 5710 5709 5708 5708 5708 5708 5706 5705 5705 5704 5703 5702 5700 5698 5697 5697
5679 5677 5682 5689 5693 5686 5685 5686 5691 5692 5692 5695 5696 5699 5702 5706 5710 5713 5718 5722 5723 5724 5724 5725 5724 5724 5723 5722 5718 5716 5712 5709 5706 5704 5703 5702 5701 5701 5700 5699 5698 5697 5696 5694 5693 5693 5693 5692 5690
5677 5677 5679 5679 5685 5686 5680 5678 5683 5685 5686 5686 5687 5688 5691 5694 5697 5700 5705 5710 5713 5714 5715 5717 5718 5719 5719 5718 5715 5710 5705 5701 5697 5696 5694 5693 5693 5692 5692 5690 5690 5688 5688 5687 5685 5685 5685 5684 5682
5674 5686 5681 5677 5673 5678 5677 5668 5680 5682 5678 5676 5676 5677 5678 5681 5684 5688 5691 5695 5700 5703 5707 5709 5711 5712 5712 5712 5709 5704 5699 5694 5690 5689 5685 5683 5683 5681 5680 5680 5679 5678 5678 5677 5677 5677 5678 5677 5675
5678 5686 5680 5677 5673 5671 5676 5668 5678 5681 5673 5670 5666 5665 5666 5667 5670 5673 5677 5682 5687 5691 5696 5699 5702 5704 5705 5704 5703 5699 5694 5689 5684 5680 5677 5673 5671 5670 5669 5668 5668 5668 5667 5667 5667 5667 5668 5668 5667
5681 5678 5676 5676 5675 5661 5674 5669 5670 5677 5673 5666 5660 5656 5655 5655 5658 5661 5666 5670 5674 5680 5684 5687 5690 5692 5694 5695 5694 5692 5687 5681 5676 5672 5668 5664 5661 5659 5658 5656 5656 5655 5656 5655 5655 5655 5655 5654 5653
5675 5663 5657 5658 5661 5665 5680 5669 5666 5670 5669 5663 5653 5646 5644 5645 5646 5649 5653 5657 5661 5666 5671 5674 5678 5680 5682 5684 5683 5681 5677 5673 5668 5663 5659 5655 5651 5649 5646 5644 5645 5645 5644 5643 5642 5642 5642 5641 5640
5672 5667 5653 5648 5656 5666 5669 5664 5660 5659 5656 5652 5646 5640 5636 5635 5635 5636 5639 5644 5648 5653 5657 5662 5665 5667 5669 5670 5670 5668 5665 5662 5657 5652 5649 5645 5641 5638 5635 5634 5634 5634 5633 5632 5631 5631 5630 5628 5627
5669 5669 5676 5661 5662 5658 5664 5661 5650 5648 5642 5639 5635 5631 5627 5625 5625 5625 5627 5631 5634 5639 5643 5648 5651 5654 5655 5656 5655 5654 5651 5648 5645 5640 5637 5634 5630 5627 5625 5624 5624 5622 5621 5620 5620 5618 5617 5616 5616
5673 5673 5664 5656 5646 5646 5657 5657 5654 5644 5636 5632 5626 5622 5617 5615 5615 5615 5616 5618 5621 5626 5630 5634 5637 5640 5641 5641 5640 5639 5637 5634 5632 5628 5624 5621 5617 5615 5615 5614 5612 5611 5610 5609 5609 5608 5606 5605 5602
5665 5662 5660 5663 5663 5650 5645 5648 5657 5651 5641 5630 5620 5613 5609 5607 5605 5605 5605 5608 5611 5614 5618 5621 5622 5624 5625 5625 5624 5623 5621 5618 5617 5614 5611 5608 5606 5604 5604 5602 5601 5600 5599 5598 5597 5596 5595 5593 5590
5667 5664 5661 5649 5652 5657 5650 5641 5648 5646 5637 5625 5614 5605 5600 5598 5596 5594 5595 5597 5599 5601 5604 5607 5608 5609 5609 5609 5609 5607 5606 5605 5603 5600 5597 5595 5594 5592 5592 5592 5591 5590 5588 5587 5586 5585 5583 5581 5579